When you browse on this site, cookies collect data to enhance your experience and personalize the content and advertising you see.
Visit our Privacy Policy to learn more. By continuing to use the site, you agree to this use of cookies and data.
  • In Hungary
  • List of Countries
  • For 7 days
  • Water Temperature
  • Satellite Maps
  • Weather Map
  • News
  • Weather Widgets
  • user-avatar
    Login

    Hourly Weather Huangtukuang

    Today, 16 December, Sunday

    Time Temperature Precipitation Wind Pressure Humidity
    00:00 +2°C° 0 mm 0 mps 712 mmHg 81%
    01:00 +2°C° 0 mm 0 mps 713 mmHg 83%
    02:00 +2°C° 0 mm 0 mps 713 mmHg 82%
    03:00 +2°C° 0 mm 0 mps 712 mmHg 82%
    04:00 +2°C° 0 mm 0 mps 712 mmHg 82%
    05:00 +2°C° 0 mm 0 mps 712 mmHg 81%
    06:00 +2°C° 0 mm 0 mps 712 mmHg 80%
    07:00 +2°C° 0 mm 0 mps 713 mmHg 79%
    08:00 +5°C° 0 mm 0 mps 713 mmHg 70%
    09:00 +8°C° 0 mm 1 mps 713 mmHg 61%
    10:00 +11°C° 0 mm 1 mps 713 mmHg 52%
    11:00 +12°C° 0 mm 1 mps 713 mmHg 48%
    12:00 +13°C° 0 mm 1 mps 712 mmHg 45%
    13:00 +14°C° 0 mm 1 mps 711 mmHg 42%
    14:00 +13°C° 0 mm 1 mps 711 mmHg 45%
    15:00 +13°C° 0 mm 1 mps 711 mmHg 48%
    16:00 +12°C° 0 mm 1 mps 710 mmHg 51%
    17:00 +10°C° 0 mm 1 mps 710 mmHg 55%
    18:00 +9°C° 0 mm 1 mps 710 mmHg 58%
    19:00 +6°C° 0 mm 0 mps 710 mmHg 62%
    20:00 +6°C° 0 mm 0 mps 710 mmHg 63%
    21:00 +6°C° 0 mm 0 mps 710 mmHg 63%
    22:00 +5°C° 0 mm 0 mps 711 mmHg 64%
    23:00 +5°C° 0 mm 0 mps 711 mmHg 64%

    Tomorrow, 17 December, Monday

    Time Temperature Precipitation Wind Pressure Humidity
    00:00 +5°C° 0 mm 0 mps 710 mmHg 63%
    01:00 +4°C° 0 mm 0 mps 710 mmHg 63%
    02:00 +4°C° 0 mm 0 mps 710 mmHg 63%
    03:00 +4°C° 0 mm 0 mps 710 mmHg 62%
    04:00 +4°C° 0 mm 0 mps 710 mmHg 61%
    05:00 +4°C° 0 mm 0 mps 710 mmHg 60%
    06:00 +4°C° 0 mm 0 mps 710 mmHg 58%
    07:00 +4°C° 0 mm 0 mps 711 mmHg 57%
    08:00 +7°C° 0 mm 0 mps 711 mmHg 49%
    09:00 +10°C° 0 mm 1 mps 712 mmHg 42%
    10:00 +13°C° 0 mm 1 mps 712 mmHg 34%
    11:00 +14°C° 0 mm 1 mps 711 mmHg 31%
    12:00 +15°C° 0 mm 1 mps 711 mmHg 29%
    13:00 +16°C° 0 mm 1 mps 710 mmHg 26%
    14:00 +15°C° 0 mm 1 mps 710 mmHg 31%
    15:00 +15°C° 0 mm 1 mps 709 mmHg 35%
    16:00 +14°C° 0 mm 1 mps 709 mmHg 40%
    17:00 +12°C° 0 mm 1 mps 709 mmHg 42%
    18:00 +10°C° 0 mm 1 mps 709 mmHg 45%
    19:00 +9°C° 0 mm 1 mps 709 mmHg 48%
    20:00 +8°C° 0 mm 1 mps 709 mmHg 49%
    21:00 +8°C° 0 mm 1 mps 709 mmHg 49%
    22:00 +7°C° 0 mm 0 mps 709 mmHg 50%
    23:00 +6°C° 0 mm 0 mps 709 mmHg 50%

    Day after tomorrow, 18 December, Tuesday

    Time Temperature Precipitation Wind Pressure Humidity
    00:00 +6°C° 0 mm 0 mps 709 mmHg 50%
    01:00 +6°C° 0 mm 0 mps 709 mmHg 49%
    02:00 +6°C° 0 mm 0 mps 708 mmHg 49%
    03:00 +5°C° 0 mm 0 mps 708 mmHg 49%
    04:00 +5°C° 0 mm 0 mps 707 mmHg 48%
    05:00 +5°C° 0 mm 0 mps 708 mmHg 48%
    06:00 +5°C° 0 mm 0 mps 708 mmHg 49%
    07:00 +7°C° 0 mm 1 mps 708 mmHg 49%
    08:00 +8°C° 0 mm 0 mps 708 mmHg 44%
    09:00 +11°C° 0 mm 0 mps 709 mmHg 39%
    10:00 +14°C° 0 mm 0 mps 709 mmHg 34%
    11:00 +15°C° 0 mm 0 mps 708 mmHg 33%
    12:00 +19°C° 0 mm 1 mps 707 mmHg 31%
    13:00 +20°C° 0 mm 1 mps 707 mmHg 30%
    14:00 +19°C° 0 mm 1 mps 706 mmHg 35%
    15:00 +18°C° 0 mm 1 mps 705 mmHg 40%
    16:00 +16°C° 0 mm 1 mps 705 mmHg 44%
    17:00 +15°C° 0 mm 1 mps 705 mmHg 48%
    18:00 +13°C° 0 mm 1 mps 705 mmHg 51%
    19:00 +12°C° 0 mm 1 mps 705 mmHg 54%
    20:00 +12°C° 0 mm 1 mps 705 mmHg 56%
    21:00 +11°C° 0 mm 1 mps 705 mmHg 57%
    22:00 +11°C° 0 mm 1 mps 705 mmHg 58%
    23:00 +11°C° 0 mm 1 mps 705 mmHg 59%

    19 December, Wednesday

    Time Temperature Precipitation Wind Pressure Humidity
    00:00 +10°C° 0 mm 1 mps 704 mmHg 60%
    01:00 +10°C° 0 mm 1 mps 704 mmHg 61%
    02:00 +10°C° 0 mm 1 mps 704 mmHg 62%
    03:00 +10°C° 0 mm 1 mps 704 mmHg 63%
    04:00 +10°C° 0 mm 1 mps 704 mmHg 64%
    05:00 +10°C° 0 mm 1 mps 704 mmHg 64%
    06:00 +10°C° 0 mm 1 mps 704 mmHg 65%
    07:00 +11°C° 0 mm 1 mps 705 mmHg 65%
    08:00 +12°C° 0 mm 1 mps 705 mmHg 65%
    09:00 +12°C° 0 mm 1 mps 705 mmHg 65%
    10:00 +13°C° 0 mm 1 mps 705 mmHg 65%
    11:00 +13°C° 0.1 mm 1 mps 705 mmHg 66%
    12:00 +14°C° 0.1 mm 1 mps 704 mmHg 68%
    13:00 +14°C° 0.1 mm 1 mps 703 mmHg 69%
    14:00 +13°C° 0.5 mm 1 mps 703 mmHg 73%
    15:00 +13°C° 0.5 mm 1 mps 703 mmHg 77%
    16:00 +12°C° 0.5 mm 1 mps 703 mmHg 81%
    17:00 +12°C° 0.9 mm 1 mps 703 mmHg 83%
    18:00 +12°C° 0.9 mm 1 mps 703 mmHg 86%
    19:00 +11°C° 0.9 mm 1 mps 704 mmHg 89%
    20:00 +11°C° 1.1 mm 1 mps 704 mmHg 90%
    21:00 +11°C° 1.1 mm 1 mps 704 mmHg 92%
    22:00 +11°C° 1.1 mm 1 mps 704 mmHg 93%
    23:00 +11°C° 0.7 mm 1 mps 704 mmHg 94%

    20 December, Thursday

    Time Temperature Precipitation Wind Pressure Humidity
    00:00 +11°C° 0.7 mm 1 mps 703 mmHg 94%
    01:00 +11°C° 0.7 mm 1 mps 703 mmHg 95%
    02:00 +11°C° 0.8 mm 1 mps 703 mmHg 95%
    03:00 +11°C° 0.8 mm 1 mps 703 mmHg 96%
    04:00 +11°C° 0.8 mm 1 mps 703 mmHg 96%
    05:00 +11°C° 1.1 mm 1 mps 703 mmHg 96%
    06:00 +11°C° 1.1 mm 1 mps 703 mmHg 96%
    07:00 +11°C° 1.1 mm 1 mps 703 mmHg 96%
    08:00 +11°C° 0.4 mm 1 mps 704 mmHg 95%
    09:00 +11°C° 0.4 mm 1 mps 704 mmHg 94%
    10:00 +12°C° 0.4 mm 1 mps 704 mmHg 93%
    11:00 +12°C° 0.3 mm 1 mps 703 mmHg 92%
    12:00 +12°C° 0.3 mm 1 mps 702 mmHg 92%
    13:00 +13°C° 0.3 mm 1 mps 702 mmHg 92%
    14:00 +13°C° 0.1 mm 1 mps 702 mmHg 92%
    15:00 +13°C° 0.1 mm 1 mps 701 mmHg 93%
    16:00 +13°C° 0.1 mm 1 mps 701 mmHg 93%
    17:00 +13°C° 0.1 mm 1 mps 702 mmHg 94%
    18:00 +12°C° 0.1 mm 1 mps 702 mmHg 94%
    19:00 +12°C° 0.1 mm 1 mps 703 mmHg 95%
    20:00 +12°C° 0.1 mm 1 mps 703 mmHg 96%
    21:00 +12°C° 0.1 mm 1 mps 703 mmHg 96%
    22:00 +12°C° 0.1 mm 1 mps 703 mmHg 96%
    23:00 +12°C° 0.2 mm 1 mps 703 mmHg 96%

    21 December, Friday

    Time Temperature Precipitation Wind Pressure Humidity
    00:00 +12°C° 0.2 mm 1 mps 703 mmHg 96%
    01:00 +12°C° 0.2 mm 1 mps 703 mmHg 96%
    02:00 +12°C° 0.2 mm 1 mps 703 mmHg 96%
    03:00 +12°C° 0.2 mm 1 mps 703 mmHg 97%
    04:00 +12°C° 0.2 mm 1 mps 704 mmHg 97%
    05:00 +12°C° 0.3 mm 1 mps 704 mmHg 96%
    06:00 +11°C° 0.3 mm 1 mps 704 mmHg 96%
    07:00 +11°C° 0.3 mm 1 mps 705 mmHg 96%
    08:00 +12°C° 0.2 mm 1 mps 705 mmHg 95%
    09:00 +12°C° 0.2 mm 1 mps 705 mmHg 93%
    10:00 +12°C° 0.2 mm 1 mps 706 mmHg 92%
    11:00 +12°C° 0.5 mm 1 mps 705 mmHg 92%
    12:00 +12°C° 0.5 mm 1 mps 705 mmHg 92%
    13:00 +12°C° 0.5 mm 1 mps 704 mmHg 93%
    14:00 +11°C° 0.5 mm 1 mps 704 mmHg 93%
    15:00 +11°C° 0.5 mm 1 mps 704 mmHg 93%
    16:00 +11°C° 0.5 mm 1 mps 704 mmHg 94%
    17:00 +11°C° 0.1 mm 1 mps 704 mmHg 94%
    18:00 +11°C° 0.1 mm 1 mps 705 mmHg 95%
    19:00 +10°C° 0.1 mm 1 mps 705 mmHg 95%
    20:00 +10°C° 0.1 mm 1 mps 705 mmHg 95%
    21:00 +10°C° 0.1 mm 1 mps 705 mmHg 95%
    22:00 +10°C° 0.1 mm 1 mps 705 mmHg 95%
    23:00 +10°C° 0.3 mm 1 mps 705 mmHg 95%
    Show more